| time (UTC) | temp F | wind direction | speed MPH | gust MPH | rain 1hr in | rain 24hr in | rain mn in | humidity % | barometer mb |
| 20260504222242 | 64 | 299 | 2.0 | 6.0 | 0.00 | 0.02 | 0.02 | 50 | 1003.8 |
| 20260504221241 | 64 | 263 | 2.0 | 5.0 | 0.00 | 0.02 | 0.02 | 51 | 1003.9 |
| 20260504220725 | 64 | 309 | 2.0 | 11.0 | 0.00 | 0.02 | 0.02 | 51 | 1003.9 |
| 20260504220247 | 64 | 309 | 2.0 | 11.0 | 0.00 | 0.02 | 0.02 | 51 | 1003.9 |
| 20260504215717 | 64 | 245 | 3.0 | 11.0 | 0.00 | 0.02 | 0.02 | 51 | 1003.9 |
| 20260504214723 | 64 | 283 | 4.0 | 14.0 | 0.00 | 0.02 | 0.02 | 51 | 1004.0 |
| 20260504214243 | 64 | 283 | 4.0 | 14.0 | 0.00 | 0.02 | 0.02 | 51 | 1004.0 |
| 20260504213241 | 64 | 290 | 5.0 | 15.0 | 0.00 | 0.02 | 0.02 | 53 | 1003.9 |
| 20260504212241 | 64 | 241 | 5.0 | 15.0 | 0.00 | 0.02 | 0.02 | 51 | 1004.0 |
| 20260504211241 | 63 | 279 | 6.0 | 18.0 | 0.00 | 0.02 | 0.02 | 54 | 1004.0 |
| 20260504210242 | 63 | 254 | 7.0 | 16.0 | 0.00 | 0.02 | 0.02 | 51 | 1003.9 |
| 20260504205240 | 64 | 284 | 6.0 | 15.0 | 0.00 | 0.02 | 0.02 | 53 | 1003.9 |
| 20260504204240 | 63 | 290 | 6.0 | 15.0 | 0.00 | 0.02 | 0.02 | 53 | 1003.9 |
| 20260504203240 | 63 | 284 | 6.0 | 14.0 | 0.00 | 0.02 | 0.02 | 53 | 1004.0 |
| 20260504202240 | 63 | 240 | 6.0 | 14.0 | 0.00 | 0.02 | 0.02 | 53 | 1004.0 |
| 20260504201720 | 63 | 221 | 5.0 | 14.0 | 0.00 | 0.02 | 0.02 | 57 | 1004.0 |
| 20260504200240 | 62 | 271 | 6.0 | 13.0 | 0.00 | 0.02 | 0.02 | 55 | 1004.2 |
| 20260504195716 | 62 | 268 | 7.0 | 16.0 | 0.00 | 0.02 | 0.02 | 58 | 1003.9 |
| 20260504194714 | 62 | 273 | 5.0 | 13.0 | 0.00 | 0.02 | 0.02 | 60 | 1004.0 |
| 20260504193234 | 61 | 257 | 5.0 | 11.0 | 0.00 | 0.02 | 0.02 | 64 | 1004.0 |
| 20260504192234 | 61 | 221 | 5.0 | 10.0 | 0.00 | 0.02 | 0.02 | 65 | 1004.1 |
| 20260504191234 | 61 | 242 | 4.0 | 10.0 | 0.00 | 0.02 | 0.02 | 67 | 1004.1 |
| 20260504190235 | 60 | 272 | 3.0 | 9.0 | 0.00 | 0.02 | 0.02 | 69 | 1004.1 |
| 20260504185235 | 58 | 160 | 4.0 | 9.0 | 0.00 | 0.02 | 0.02 | 73 | 1004.2 |
| 20260504184234 | 58 | 215 | 5.0 | 10.0 | 0.00 | 0.02 | 0.02 | 70 | 1004.4 |
| 20260504183234 | 57 | 273 | 4.0 | 9.0 | 0.01 | 0.02 | 0.02 | 74 | 1004.4 |
| 20260504182232 | 56 | 281 | 4.0 | 9.0 | 0.01 | 0.02 | 0.02 | 76 | 1004.4 |
| 20260504181714 | 55 | 240 | 4.0 | 11.0 | 0.01 | 0.02 | 0.02 | 77 | 1004.7 |
| 20260504180232 | 54 | 282 | 5.0 | 11.0 | 0.01 | 0.02 | 0.02 | 77 | 1004.7 |
| 20260504175705 | 53 | 311 | 2.0 | 8.0 | 0.02 | 0.02 | 0.02 | 75 | 1004.8 |
| 20260504174710 | 52 | 260 | 2.0 | 7.0 | 0.02 | 0.02 | 0.02 | 75 | 1004.9 |
| 20260504173232 | 52 | 293 | 3.0 | 8.0 | 0.01 | 0.01 | 0.01 | 76 | 1005.1 |
| 20260504172232 | 53 | 304 | 3.0 | 7.0 | 0.01 | 0.01 | 0.01 | 77 | 1005.2 |
| 20260504171232 | 54 | 304 | 2.0 | 6.0 | 0.01 | 0.01 | 0.01 | 77 | 1004.9 |
| 20260504170235 | 55 | 310 | 2.0 | 11.0 | 0.01 | 0.01 | 0.01 | 76 | 1004.8 |
| 20260504160233 | 57 | 219 | 5.0 | 10.0 | 0.00 | 0.00 | 0.00 | 61 | 1003.7 |
| 20260504150224 | 54 | 159 | 5.0 | 11.0 | 0.00 | 0.03 | 0.00 | 64 | 1004.5 |
| 20260504141227 | 52 | 176 | 3.0 | 8.0 | 0.00 | 0.08 | 0.00 | 66 | 1005.3 |
| 20260504140218 | 51 | 267 | 5.0 | 12.0 | 0.00 | 0.09 | 0.00 | 65 | 1005.4 |
| 20260504130218 | 48 | 253 | 3.0 | 6.0 | 0.00 | 0.11 | 0.00 | 66 | 1006.4 |
| 20260504120212 | 43 | 189 | 2.0 | 6.0 | 0.00 | 0.13 | 0.00 | 73 | 1006.6 |
| 20260504110206 | 34 | 224 | 0.0 | 1.0 | 0.00 | 0.15 | 0.00 | 72 | 1006.5 |
| 20260504100204 | 30 | 225 | 0.0 | 0.0 | 0.00 | 0.15 | 0.00 | 72 | 1006.6 |
| 20260504081152 | 29 | 225 | 0.0 | 0.0 | 0.00 | 0.18 | 0.00 | 75 | 1006.3 |
| 20260504080152 | 29 | 225 | 0.0 | 0.0 | 0.00 | 0.18 | 0.00 | 75 | 1006.3 |
| 20260504070145 | 29 | 225 | 0.0 | 3.0 | 0.00 | 0.18 | 0.00 | 77 | 1006.1 |
| 20260504060144 | 31 | 238 | 0.0 | 0.0 | 0.00 | 0.18 | 0.00 | 78 | 1006.0 |
| 20260504050620 | 32 | 238 | 0.0 | 1.0 | 0.00 | 0.19 | 0.00 | 79 | 1005.9 |
| 20260504045138 | 32 | 238 | 0.0 | 3.0 | 0.00 | 0.19 | 0.00 | 79 | 1005.8 |
| 20260504044136 | 32 | 238 | 1.0 | 3.0 | 0.00 | 0.19 | 0.00 | 79 | 1005.9 |
| 20260504043135 | 33 | 238 | 0.0 | 2.0 | 0.00 | 0.19 | 0.00 | 79 | 1005.9 |
| 20260504042136 | 33 | 238 | 0.0 | 2.0 | 0.00 | 0.19 | 0.00 | 79 | 1005.9 |
| 20260504041136 | 33 | 238 | 1.0 | 2.0 | 0.00 | 0.19 | 0.00 | 79 | 1005.9 |
| 20260504040136 | 33 | 238 | 0.0 | 2.0 | 0.00 | 0.19 | 0.00 | 80 | 1005.8 |
| 20260504035135 | 34 | 238 | 0.0 | 2.0 | 0.00 | 0.19 | 0.19 | 79 | 1005.7 |
| 20260504034134 | 34 | 238 | 0.0 | 2.0 | 0.00 | 0.19 | 0.19 | 80 | 1005.6 |
| 20260504033133 | 35 | 238 | 0.0 | 3.0 | 0.00 | 0.19 | 0.19 | 79 | 1005.6 |
| 20260504032620 | 35 | 238 | 1.0 | 3.0 | 0.00 | 0.19 | 0.19 | 79 | 1005.6 |
| 20260504031131 | 35 | 260 | 1.0 | 2.0 | 0.00 | 0.19 | 0.19 | 78 | 1005.6 |
| 20260504030131 | 36 | 260 | 0.0 | 2.0 | 0.00 | 0.19 | 0.19 | 77 | 1005.6 |
| 20260504025130 | 37 | 260 | 0.0 | 3.0 | 0.00 | 0.19 | 0.19 | 75 | 1005.5 |
| 20260504024130 | 37 | 271 | 0.0 | 2.0 | 0.00 | 0.19 | 0.19 | 73 | 1005.4 |
| 20260504023131 | 38 | 271 | 0.0 | 2.0 | 0.00 | 0.19 | 0.19 | 70 | 1005.3 |
| 20260504022131 | 39 | 271 | 0.0 | 2.0 | 0.00 | 0.19 | 0.19 | 68 | 1005.4 |
| 20260504021130 | 40 | 271 | 0.0 | 2.0 | 0.00 | 0.20 | 0.19 | 66 | 1005.4 |
| 20260504020130 | 41 | 271 | 1.0 | 4.0 | 0.00 | 0.20 | 0.19 | 65 | 1005.3 |
| 20260504015131 | 41 | 242 | 1.0 | 4.0 | 0.00 | 0.20 | 0.19 | 64 | 1005.3 |
| 20260504014130 | 42 | 267 | 1.0 | 5.0 | 0.00 | 0.20 | 0.19 | 63 | 1005.3 |
| 20260504013614 | 42 | 319 | 1.0 | 9.0 | 0.00 | 0.20 | 0.19 | 63 | 1005.3 |
| 20260504012131 | 43 | 294 | 3.0 | 9.0 | 0.00 | 0.20 | 0.19 | 61 | 1005.1 |
| 20260504011130 | 42 | 267 | 3.0 | 9.0 | 0.00 | 0.20 | 0.19 | 61 | 1005.0 |
| 20260504010131 | 43 | 309 | 2.0 | 7.0 | 0.00 | 0.21 | 0.19 | 61 | 1004.9 |
| 20260504005130 | 43 | 281 | 2.0 | 6.0 | 0.00 | 0.21 | 0.19 | 60 | 1004.7 |
| 20260504004130 | 44 | 325 | 2.0 | 6.0 | 0.00 | 0.21 | 0.19 | 59 | 1004.4 |
| 20260504003131 | 44 | 301 | 2.0 | 5.0 | 0.00 | 0.21 | 0.19 | 58 | 1004.2 |
| 20260504002131 | 44 | 203 | 2.0 | 8.0 | 0.00 | 0.22 | 0.19 | 58 | 1004.2 |
| 20260504001130 | 45 | 302 | 3.0 | 8.0 | 0.00 | 0.22 | 0.19 | 57 | 1004.1 |
| 20260504000130 | 45 | 300 | 3.0 | 11.0 | 0.00 | 0.23 | 0.19 | 56 | 1003.9 |
| 20260503235130 | 46 | 292 | 3.0 | 11.0 | 0.00 | 0.24 | 0.19 | 55 | 1003.7 |
| 20260503234131 | 46 | 317 | 4.0 | 10.0 | 0.00 | 0.25 | 0.19 | 54 | 1003.5 |
| 20260503233134 | 46 | 309 | 4.0 | 10.0 | 0.00 | 0.27 | 0.19 | 55 | 1003.4 |
| 20260503232133 | 47 | 340 | 4.0 | 13.0 | 0.00 | 0.27 | 0.19 | 53 | 1003.3 |
| 20260503231133 | 47 | 328 | 4.0 | 13.0 | 0.00 | 0.27 | 0.19 | 52 | 1003.2 |
| 20260503230618 | 48 | 342 | 5.0 | 17.0 | 0.00 | 0.28 | 0.19 | 51 | 1003.0 |
| 20260503225617 | 49 | 285 | 4.0 | 17.0 | 0.00 | 0.28 | 0.19 | 51 | 1002.9 |
| 20260503224134 | 49 | 325 | 5.0 | 14.0 | 0.00 | 0.28 | 0.19 | 51 | 1002.7 |
| 20260503223609 | 49 | 303 | 5.0 | 19.0 | 0.00 | 0.30 | 0.19 | 53 | 1002.5 |